Location: ?????
(55.8833°N, 37.6500°E)
Time: 21:38:13
(UTC+00:00)

Okean 3 - Pass Details

Date: 27 February 2020
Orbit: 575 x 602 km, 82.5° (Epoch: 29 March)

Event Time Altitude Azimuth Distance (km) Brightness Sun altitude
Rises 16:10:11 0° 352° (N) 2,834 7.1 -10.8°
Reaches altitude 10° 16:12:33 10° 1° (N) 1,924 6.1 -11.2°
Maximum altitude 16:16:28 35° 68° (ENE) 957 4.1 -11.7°
Enters shadow 16:20:17 10° 135° (SE) 1,881 5.6 -12.3°
